This demonstration page uses our WeatherBlox Daily Observations layout. Learn more.

40.92945, -100.16068

Hourly Observations for January 11, 2020

Temp ( °F °C ) Dew Point ( °F °C ) Humidity (%) Winds ( mph kmh ) Pressure ( in mb ) Visibility ( mi km ) Precip ( " mm )
12:15 am 00:15 Clear 10 -12.5 6 -14.2 87 87 NNW 10 17 30.45 1031 10 16.0934 0 0
12:35 am 00:35 Clear 10 -12.5 6 -14.3 87 87 NNW 12 19 30.43 1030 10 16.0934 0 0
12:55 am 00:55 Clear 10 -12.5 6 -14.3 87 87 NNW 10 17 30.41 1030 10 16.0934 0 0
1:15 am 01:15 Clear 10 -12.5 6 -14.3 87 87 NNW 10 17 30.39 1029 10 16.0934 0 0
1:35 am 01:35 Clear 9 -12.7 6 -14.5 87 87 NNW 9 15 30.37 1028 10 16.0934 0 0
1:55 am 01:55 Clear 9 -12.7 6 -14.5 87 87 N 8 13 30.37 1028 10 16.0934 0 0
2:15 am 02:15 Clear 9 -12.8 6 -14.5 87 87 N 3 6 30.38 1029 10 16.0934 0 0
2:35 am 02:35 Clear 9 -13 6 -14.5 89 89 Calm 30.4 1030 10 16.0934 0 0
2:55 am 02:55 Clear 8 -13.1 6 -14.7 88 88 N 6 9 30.4 1029 10 16.0934 0 0
3:15 am 03:15 Clear 8 -13.3 5 -15 87 87 Calm 30.41 1030 10 16.0934 0 0
3:35 am 03:35 Clear 8 -13.3 5 -15 87 87 ESE 3 6 30.43 1030 10 16.0934 0 0
3:55 am 03:55 Clear 7 -13.8 4 -15.5 87 87 NNE 3 6 30.43 1031 10 16.0934 0 0
4:15 am 04:15 Clear 7 -14.1 4 -15.7 88 88 N 6 9 30.43 1030 10 16.0934 0 0
4:35 am 04:35 Clear 7 -14.1 4 -15.7 88 88 NE 5 7 30.43 1030 10 16.0934 0 0
4:55 am 04:55 Clear 6 -14.5 3 -16 88 88 N 6 9 30.41 1030 10 16.0934 0 0
5:15 am 05:15 Clear 6 -14.3 4 -15.8 89 89 N 6 9 30.41 1030 10 16.0934 0 0
5:35 am 05:35 Clear 6 -14.6 3 -16 89 89 N 5 7 30.39 1029 10 16.0934 0 0
5:55 am 05:55 Clear 5 -14.8 3 -16.2 89 89 Calm 30.39 1029 10 16.0934 0 0
6:15 am 06:15 Clear 5 -14.9 3 -16.1 91 91 NW 7 11 30.41 1030 10 16.0934 0 0
6:35 am 06:35 Clear 5 -15 2 -16.5 88 88 NW 5 7 30.41 1030 10 16.0934 0 0
6:55 am 06:55 Clear 5 -14.9 2 -16.4 88 88 NW 6 9 30.41 1030 10 16.0934 0 0
7:15 am 07:15 Clear 5 -15 2 -16.5 88 88 WNW 3 6 30.41 1030 10 16.0934 0 0
7:35 am 07:35 Clear 5 -15 2 -16.5 88 88 NW 5 7 30.41 1030 10 16.0934 0 0
7:55 am 07:55 Clear 5 -15 2 -16.5 88 88 NW 3 6 30.4 1029 10 16.0934 0 0
8:15 am 08:15 Sunny 5 -15.2 2 -16.7 88 88 NW 3 6 30.4 1029 10 16.0934 0 0
8:35 am 08:35 Sunny 5 -15 2 -16.6 88 88 Calm 30.39 1029 10 16.0934 0 0
8:55 am 08:55 Sunny 6 -14.6 3 -16.2 88 88 WNW 3 6 30.38 1029 10 16.0934 0 0
9:15 am 09:15 Sunny 7 -13.8 4 -15.5 87 87 NW 3 6 30.37 1029 10 16.0934 0 0
9:35 am 09:35 Sunny 8 -13.2 5 -15 86 86 NW 5 7 30.36 1028 10 16.0934 0 0
9:55 am 09:55 Sunny 10 -12.3 7 -14.1 87 87 Calm 30.35 1028 10 16.0934 0 0
10:15 am 10:15 Sunny 11 -11.6 8 -13.4 87 87 NW 5 7 30.34 1027 10 16.0934 0 0
10:35 am 10:35 Sunny 12 -11 8 -13.1 85 85 Calm 30.33 1027 10 16.0934 0 0
10:55 am 10:55 Sunny 13 -10.3 9 -12.9 81 81 WNW 3 6 30.31 1027 10 16.0934 0 0
11:15 am 11:15 Sunny 14 -10 9 -12.9 80 80 Calm 30.31 1026 10 16.0934 0 0
11:35 am 11:35 Sunny 16 -9 9 -13 73 73 Calm 30.29 1026 10 16.0934 0 0
11:55 am 11:55 Sunny 16 -8.9 7 -13.7 69 69 Calm 30.26 1025 10 16.0934 0 0
12:15 pm 12:15 Sunny 18 -7.8 10 -12.4 70 70 Calm 30.23 1024 10 16.0934 0 0
12:35 pm 12:35 Sunny 19 -7.2 7 -14 59 59 SSE 3 6 30.21 1023 10 16.0934 0 0
12:55 pm 12:55 Sunny 20 -6.7 8 -13.2 60 60 Calm 30.19 1022 10 16.0934 0 0
1:15 pm 13:15 Sunny 20 -6.4 8 -13.6 57 57 Calm 30.16 1021 10 16.0934 0 0
1:35 pm 13:35 Sunny 21 -6.2 8 -13.4 57 57 Calm 30.16 1021 10 16.0934 0 0
1:55 pm 13:55 Sunny 22 -5.5 9 -12.6 58 58 SSE 7 11 30.14 1021 10 16.0934 0 0
2:15 pm 14:15 Sunny 23 -5 10 -12.4 57 57 SE 8 13 30.12 1020 10 16.0934 0 0
2:35 pm 14:35 Sunny 24 -4.5 10 -12.4 54 54 SSE 7 11 30.11 1020 10 16.0934 0 0
2:55 pm 14:55 Sunny 24 -4.4 9 -12.8 52 52 SSE 8 13 30.1 1019 10 16.0934 0 0
3:15 pm 15:15 Sunny 25 -4 11 -11.8 55 55 SE 10 17 30.08 1019 10 16.0934 0 0
3:35 pm 15:35 Sunny 25 -3.9 11 -11.8 55 55 SE 12 19 30.07 1018 10 16.0934 0 0
3:55 pm 15:55 Sunny 25 -4 11 -11.5 56 56 SE 12 19 30.07 1018 10 16.0934 0 0
4:15 pm 16:15 Sunny 25 -4.1 10 -12.1 54 54 SE 10 17 30.09 1019 10 16.0934 0 0
4:35 pm 16:35 Sunny 25 -4.1 10 -12.2 54 54 SE 10 17 30.07 1018 10 16.0934 0 0
4:55 pm 16:55 Sunny 24 -4.4 9 -12.7 53 53 SE 10 17 30.08 1019 10 16.0934 0 0
5:15 pm 17:15 Sunny 24 -4.6 10 -12.5 54 54 SE 10 17 30.07 1018 10 16.0934 0 0
5:35 pm 17:35 Clear 23 -5 10 -12 58 58 SE 8 13 30.08 1019 10 16.0934 0 0
5:55 pm 17:55 Clear 23 -5.1 11 -11.7 60 60 SSE 7 11 30.11 1020 10 16.0934 0 0
6:15 pm 18:15 Clear 22 -5.6 11 -11.4 64 64 SE 6 9 30.1 1019 10 16.0934 0 0
6:35 pm 18:35 Clear 22 -5.7 11 -11.4 65 65 SE 6 9 30.1 1019 10 16.0934 0 0
6:55 pm 18:55 Clear 21 -6.1 12 -11.1 68 68 SSE 6 9 30.12 1020 10 16.0934 0 0
7:15 pm 19:15 Clear 21 -6.3 12 -11.1 69 69 S 5 7 30.12 1020 10 16.0934 0 0
7:35 pm 19:35 Clear 21 -6.3 11 -11.4 67 67 S 6 9 30.12 1020 10 16.0934 0 0
7:55 pm 19:55 Clear 20 -6.6 10 -12 66 66 S 7 11 30.12 1020 10 16.0934 0 0
8:15 pm 20:15 Clear 19 -7.1 10 -12.3 67 67 S 8 13 30.13 1020 10 16.0934 0 0
8:35 pm 20:35 Clear 20 -6.7 9 -12.8 62 62 SSE 10 17 30.11 1019 10 16.0934 0 0
8:55 pm 20:55 Clear 19 -7 9 -12.6 65 65 S 9 15 30.12 1020 10 16.0934 0 0
9:15 pm 21:15 Clear 19 -7.2 10 -12.2 68 68 SSE 8 13 30.12 1020 10 16.0934 0 0
9:35 pm 21:35 Partly Cloudy 19 -7.2 10 -12 69 69 S 6 9 30.13 1020 10 16.0934 0 0
9:55 pm 21:55 Partly Cloudy 19 -7.5 10 -12.2 69 69 SSE 7 11 30.13 1020 10 16.0934 0 0
10:15 pm 22:15 Clear 19 -7.4 10 -12 70 70 SSE 8 13 30.13 1020 10 16.0934 0 0
10:35 pm 22:35 Mostly Cloudy 19 -7 10 -12 68 68 SSE 9 15 30.13 1020 10 16.0934 0 0
10:55 pm 22:55 Mostly Cloudy 19 -7.1 11 -11.9 69 69 SSE 7 11 30.13 1020 10 16.0934 0 0
11:15 pm 23:15 Partly Cloudy 18 -7.6 11 -11.8 72 72 SSE 7 11 30.14 1021 10 16.0934 0 0
11:35 pm 23:35 Clear 18 -8 11 -11.8 74 74 SSE 6 9 30.15 1021 10 16.0934 0 0
11:55 pm 23:55 Clear 19 -7.5 10 -12 70 70 SSE 8 13 30.12 1020 10 16.0934 0 0

Powered by AerisWeather